Kezdőlap
METAR-TAF:

METAR-TAF

Repülőterek :

Wahoo, Nebraska, Amerikai Egyesült Államok

földrajzi szélesség: 41-14-26N, földrajzi hosszúság: 096-35-40W, magasság: 373 m

Jelenlegi meteorológiai megfigyelések

A jelentés 17 perccel ezelõtt készült, 12:15 UTC
Északi szél 4 kt
Hőmérséklet -10°C
Páratartalom 92%
Légköri nyomás 1024 hPa
Látótávolság: 16.1 km
Derült ég

METAR: KAHQ 081215Z AUTO 35004KT 10SM CLR M10/M11 A3024 RMK AO2 T11011113

Idő: 06:32 (12:32 UTC)


TAF: hiányzik

Meteorológiai megfigyelések és előrejelzések több, mint 4000 repülőtéren (METAR és TAF jelentéseket).

A térképen piros és sárga pontok jelzik az elérhető meteorológiai állomásokat.

Mozgassa az egeret a pont fölött, hogy megjelenjen az állomás neve.

Azután kattintson az időjárási megfigyelések és előrejelzések megtekintéséhez.

A térkép megváltoztatása: kattintson a fekete keresztel jelölt zöld gombra ráközelítéshez, a vonallal jelölt zöld gombra távolításhoz, vagy a zöld nyilakra a szomszédos térképek eléréséhez.


METAR-TAF: